Flag for Canada Weather past 2 weeks in Laval, Quebec, Canada

45 °F


Feels Like: 41 °F
Forecast: 34 / 53 °F
Wind: 7 mph from South

Location: Montreal / Mirabel

Current Time: Nov 27, 2015 at 12:48:42 AM

Latest Report: Nov 27, 2015 at 12:00 AM

Visibility: 25 mi

Pressure: 30.32 "Hg

Humidity: 81%

Dew point: 39 °F

Location of LavalLocation

Historic Weather in Laval — Graph


Laval temperature yesterday

Maximum temperature yesterday: 52 °F (at 1:00 PM)
Minimum temperature yesterday: 25 °F (at 7:00 AM)
Average temperature yesterday: 37 °F

Past Weeks' High & Low Weather Summary

High55 °F (Nov 19, 1:00 PM)100% (Nov 12, 1:00 AM)30.76 "Hg (Nov 12, 1:00 AM)
Low16 °F (Nov 24, 10:00 PM)29% (Nov 23, 2:00 PM)29.22 "Hg (Nov 13, 3:00 AM)
Average35 °F77%30.13 "Hg
* Reported Nov 11 11:00 PM — Nov 26 11:00 PM, Laval, Weather by CustomWeather, © 2015

Note: Actual official high and low records may vary slightly from our data, if they occured in-between our weather recording intervals... More about our weather records


Laval weather history for previous 24 hours

Time TempWeatherWind HumidityBarometerVisibility
11:00 PM
Thu, Nov 26
45 °FMostly cloudy.6 mph76%30.35 "Hg25 mi
10:00 PM45 °FOvercast.6 mph76%30.36 "Hg25 mi
9:00 PM45 °FMostly cloudy.6 mph76%30.39 "Hg25 mi
8:00 PM45 °FMostly cloudy.7 mph76%30.40 "Hg25 mi
7:00 PM43 °FSprinkles. Mostly cloudy.7 mph87%30.42 "Hg25 mi
6:00 PM45 °FSprinkles. Mostly cloudy.9 mph76%30.45 "Hg25 mi
5:00 PM43 °FMostly cloudy.9 mph81%30.45 "Hg15 mi
4:00 PM45 °FLight rain. More clouds than sun.8 mph76%30.48 "Hg10 mi
3:00 PM48 °FLight rain. Overcast.6 mph66%30.49 "Hg20 mi
2:00 PM52 °FMostly cloudy.8 mph54%30.50 "Hg25 mi
1:00 PM52 °FPartly sunny.6 mph50%30.52 "Hg25 mi
12:00 PM46 °FBroken clouds.2 mph62%30.55 "Hg25 mi
11:00 AM41 °FBroken clouds.3 mph76%30.58 "Hg20 mi
10:00 AM36 °FBroken clouds.2 mph81%30.60 "Hg20 mi
9:00 AM30 °FMore clouds than sun.5 mph93%30.60 "Hg20 mi
8:00 AM27 °FMostly cloudy.No wind93%30.59 "Hg20 mi
7:00 AM25 °FPartly cloudy.No wind93%30.60 "Hg20 mi
6:00 AM27 °FPassing clouds.3 mph86%30.60 "Hg25 mi
5:00 AM27 °FPassing clouds.No wind86%30.60 "Hg25 mi
4:00 AM27 °FPassing clouds.3 mph86%30.61 "Hg25 mi
3:00 AM27 °FPartly cloudy.3 mph86%30.62 "Hg25 mi
2:00 AM27 °FPassing clouds.2 mph86%30.62 "Hg15 mi
1:00 AM28 °FPassing clouds.5 mph86%30.62 "Hg15 mi
12:00 AM28 °FOvercast.5 mph80%30.63 "Hg15 mi
Weather by CustomWeather, © 2015

See weather overviewHow to use our weather pages